Home   Weather   Ilanz   Past weeks

Flag for Switzerland Past Weather in Ilanz, Graubünden, Switzerland — Yesterday and Last 2 Weeks

Now
40 °F

Quite cool.


Feels Like: 36 °F
Forecast: 17 / 35 °F
Wind: 7 mph from Northeast

Location: Chur

Current Time: Apr 27, 2017 at 7:08:22 pm

Latest Report: Apr 27, 2017 at 6:00 pm


Visibility: N/A

Pressure: 29.92 "Hg (27.44 "Hg at 703m altitude)

Humidity: 85%

Dew Point: 36 °F

Location of IlanzLocation

Past Weather in Ilanz — Graph

°F

Ilanz Temperature Yesterday

Maximum temperature yesterday: 47 °F (at 1:00 am)
Minimum temperature yesterday: 38 °F (at 11:00 pm)
Average temperature yesterday: 43 °F

High & Low Weather Summary for the Past Weeks

 TemperatureHumidityPressure
High69 °F (Apr 12, 5:00 pm)94% (Apr 18, 8:00 am)30.61 "Hg (Apr 18, 8:00 am)
Low29 °F (Apr 20, 6:00 am)18% (Apr 21, 4:00 pm)29.65 "Hg (Apr 25, 3:00 pm)
Average46 °F68%30.11 "Hg
* Reported Apr 12 5:00 pm — Apr 27 5:00 pm, Ilanz, Weather by CustomWeather, © 2017

Note: Actual official high and low records may vary slightly from our data, if they occured in-between our weather recording intervals... More about our weather records

Advertising

Ilanz Weather History for the Previous 24 Hours

Scroll right to see more
 ConditionsComfort  
Time TempWeatherWind HumidityBarometerVisibility
5:00 pm
Thu, Apr 27
41 °FLight rain. Low clouds.10 mph82%29.92 "Hg3 mi
4:00 pm42 °FQuite cool.12 mph81%29.91 "HgN/A
3:00 pm42 °FQuite cool.13 mph82%29.93 "HgN/A
2:00 pm41 °FFog.10 mph86%29.93 "Hg4 mi
1:00 pm41 °FQuite cool.9 mph88%29.94 "HgN/A
12:00 pm42 °FQuite cool.8 mph85%29.95 "HgN/A
11:00 am40 °FDrizzle. Low clouds.8 mph89%29.95 "Hg2 mi
10:00 am39 °FChilly.8 mph90%29.96 "HgN/A
9:00 am39 °FChilly.6 mph89%29.96 "HgN/A
8:00 am38 °FFog.7 mph89%29.95 "Hg2 mi
7:00 am37 °FChilly.8 mph91%29.93 "HgN/A
6:00 am37 °FChilly.5 mph90%29.94 "HgN/A
5:00 am37 °FDrizzle. Low clouds.3 mph93%29.93 "Hg2 mi
4:00 am37 °FChilly.9 mph92%29.92 "HgN/A
3:00 am38 °FChilly.3 mph91%29.91 "HgN/A
2:00 am38 °FLight rain. Low clouds.5 mph92%29.92 "Hg2 mi
1:00 am39 °FChilly.2 mph91%29.90 "HgN/A
12:00 am39 °FChilly.3 mph93%29.91 "HgN/A
11:00 pm
Wed, Apr 26
38 °FLight rain. Low clouds.5 mph92%29.91 "Hg2 mi
10:00 pm39 °FChilly.6 mph90%29.91 "HgN/A
9:00 pm39 °FChilly.6 mph92%29.88 "HgN/A
8:00 pm40 °FLight rain. Low clouds.10 mph92%29.86 "Hg2 mi
7:00 pm41 °FQuite cool.12 mph89%29.85 "HgN/A
Weather by CustomWeather, © 2017

See weather overviewHow to use our weather pages